Погода в Подозерском

Россия / Ивановская область     57°12′57″N   40°20′18″E
темп.,
°C
ветер,
м/с
пор.,
м/с
влажн.,
%
обл.,
%
осадки,
мм/ч
давл.,
гПа
погр.,
м
23 апреля, пт
пт2300:00+6ю4119359 0.1 1016235
03:00+5ююв411935 0.1 1016235
06:00+5ююв513925 0.0 1015313
09:00+11ю6117437 0.0 1015559
12:00+15ю7125420 0.1 10151737
15:00+17ю7114582 0.6 10132741
18:00+14ю712525 0.1 10131075
21:00+10ююв5136851 0.3 1013394
24 апреля, сб
сб2400:00+8ююв388382 0.1 1012184
03:00+7юв5148583 0.1 1009371
06:00+7юв6148565 0.1 1008426
09:00+11ююв8137195 0.1 1006965
12:00+11ю81373100 0.9 10051408
15:00+3зюз4796100 2.4 1007436
18:00+4зсз3696100 0.6 1007676
21:00+3зсз4897100 1.5 1006507
25 апреля, вс
вс2500:00+3зсз51097100 2.3 1004631
03:00+2зсз61396100 5.1 1004800
06:00+2з61284100 0.1 1004825
09:00+4з71271100 0.1 10051219
12:00+5з91265100 0.4 10051631
15:00+7з81153100 0.9 10061999
18:00+5з61061100 0.2 10071241
21:00+3зюз4117469 0.2 1008398
26 апреля, пн
пн2600:00+1зюз5128021 0.0 1009414
03:000юз410856 0.0 1010287
06:000юз410855 0.0 1010341
09:00+5зюз69595 0.0 10101147
12:00+8зюз6845100 0.0 10102385
15:00+8зюз6742100 0.0 10102220
18:00+7юз36495 0.0 10091214
21:00+3юз35735 0.1 101087
27 апреля, вт
вт2700:00+1юз337944 0.0 100946
03:000зюз238265 0.0 100932
06:00+1зюз257898 0.0 1009135
09:00+6зюз345933 0.0 1009661
12:00+8з5549100 0.8 10081819
15:00+9з5642100 1.1 10082221
18:00+8зюз465022 0.1 10091054
21:00+3зюз377535 0.2 1010131